Bellingham, WA
on Thursday, February 7, 2013

Thursday
Previous Day Next Day
Daily Summary
 ActualAverageRecord
Temperature
Mean Temperature °F 40°F  
Max Temperature 48°F 48°F 60°F (1954)
Min Temperature 30°F 33°F 20°F (1989)
Degree Days
Heating Degree Days 26 25  
Month to date heating degree days 175  
Cooling Degree Days 0 0  
Month to date cooling degree days 0  
Year to date cooling degree days 0  
Moisture
Dew Point 35°F   
Average Humidity 74    
Maximum Humidity 92    
Minimum Humidity 59    
Precipitation
Precipitation 0.01 in 0.12 in 2.39 in (1955)
Month to date precipitation 0.82  
Year to date precipitation 5.49  
Wind
Wind Speed 11 mph   
Max Wind Speed 28 mph   
Max Gust Speed 38 mph   
Visibility 10 miles   
Events Rain   

Key: T is trace of precipitation, MM is missing value
Source: NWS Daily Summary
Time(PST)TemperatureDew PointHumidity Pressure Visibility Wind DirectionWind SpeedGust SpeedPrecipitationEvents Conditions
12:53 AM 48.0°F 36.0°F 63% 29.79 in 10.0 miles SE 15.0 mph 20.7 mph 0.00 in Rain Light Rain
1:53 AM 46.9°F 37.0°F 68% 29.79 in 10.0 miles SE 9.2 mph - 0.00 in   Overcast
2:53 AM 44.1°F 39.0°F 82% 29.80 in 10.0 miles East 15.0 mph 27.6 mph 0.00 in Rain Light Rain
3:53 AM 45.0°F 35.1°F 68% 29.80 in 10.0 miles SSE 21.9 mph 38.0 mph 0.01 in   Mostly Cloudy
4:29 AM 44.6°F 35.6°F 71% 29.80 in 10.0 miles SSE 15.0 mph 29.9 mph N/A   Mostly Cloudy
4:53 AM 45.0°F 35.1°F 68% 29.85 in 10.0 miles SSE 27.6 mph 38.0 mph N/A   Mostly Cloudy
5:53 AM 45.0°F 36.0°F 71% 29.90 in 10.0 miles SSE 16.1 mph 29.9 mph N/A   Overcast
6:08 AM 44.6°F 35.6°F 71% 29.88 in 10.0 miles SSE 16.1 mph 29.9 mph N/A   Overcast
6:53 AM 44.1°F 36.0°F 73% 29.94 in 10.0 miles SSE 12.7 mph - N/A   Overcast
7:53 AM 44.1°F 36.0°F 73% 29.96 in 10.0 miles SSE 11.5 mph - N/A   Overcast
8:53 AM 44.1°F 36.0°F 73% 30.00 in 10.0 miles SSE 11.5 mph - N/A   Overcast
9:49 AM 44.6°F 35.6°F 71% 29.99 in 10.0 miles SSE 11.5 mph - N/A   Overcast
9:53 AM 45.0°F 36.0°F 71% 30.02 in 10.0 miles SSE 11.5 mph - N/A   Overcast
10:01 AM 44.6°F 35.6°F 71% 29.99 in 10.0 miles SSE 11.5 mph 20.7 mph N/A   Overcast
10:53 AM 45.0°F 36.0°F 71% 30.05 in 10.0 miles South 10.4 mph - N/A   Overcast
11:40 AM 44.6°F 35.6°F 71% 30.03 in 10.0 miles SSE 8.1 mph - N/A   Mostly Cloudy
11:53 AM 45.0°F 35.1°F 68% 30.06 in 10.0 miles South 8.1 mph 17.3 mph N/A   Mostly Cloudy
12:53 PM 46.0°F 36.0°F 68% 30.06 in 10.0 miles South 8.1 mph - N/A   Partly Cloudy
1:53 PM 46.9°F 37.0°F 68% 30.06 in 10.0 miles Variable 5.8 mph - N/A   Clear
2:53 PM 46.0°F 34.0°F 63% 30.07 in 10.0 miles SSW 5.8 mph - N/A   Clear
3:53 PM 46.9°F 33.1°F 59% 30.08 in 10.0 miles South 3.5 mph - N/A   Partly Cloudy
4:53 PM 43.0°F 34.0°F 71% 30.09 in 10.0 miles Calm Calm - N/A   Clear
5:53 PM 37.9°F 34.0°F 86% 30.12 in 10.0 miles Calm Calm - N/A   Clear
6:53 PM 36.0°F 33.1°F 89% 30.14 in 10.0 miles Calm Calm - N/A   Clear
7:53 PM 36.0°F 33.1°F 89% 30.15 in 10.0 miles Calm Calm - N/A   Clear
8:53 PM 37.9°F 34.0°F 86% 30.17 in 10.0 miles Calm Calm - N/A   Clear
9:53 PM 32.0°F 30.0°F 92% 30.19 in 10.0 miles Calm Calm - N/A   Clear
10:53 PM 30.0°F 28.0°F 92% 30.21 in 9.0 miles Calm Calm - N/A   Clear
11:53 PM 30.9°F 28.9°F 92% 30.22 in 7.0 miles Calm Calm - N/A   Clear
Moon Phase
Feb. 07 Feb. 10 Feb. 17 Feb. 25 Mar. 04
Sunrise:07:30 AM (PST) Moon Rise:05:22 AM (PST)2/7
Sunset:05:18 PM (PST) Moon Set:02:42 PM (PST)2/7

Copyright © 2014 The Weather Underground, Inc.